Weather History for LGLR - January, 2014

Change the Weather History Date:

Saturday, January 18, 2014

  Actual Average Record
Temperature  
Mean Temperature 42 °F -  
Max Temperature 49 °F 51 °F - ()
Min Temperature 36 °F 34 °F - ()
Degree Days  
Heating Degree Days 22    
Moisture  
Dew Point 43 °F    
Average Humidity 98    
Maximum Humidity 100    
Minimum Humidity 87    
Precipitation  
Precipitation 0.00 in 0.04 in - ()
Sea Level Pressure  
Sea Level Pressure 30.11 in    
Wind  
Wind Speed 0 mph ()    
Max Wind Speed 4 mph    
Max Gust Speed -    
Visibility 2.0 miles    
Events Fog    
T = Trace of Precipitation, MM = Missing Value Source: Averaged Metar Reports

Daily Weather History Graph

Daily Weather History Graph

Search for Another Location

Airport or City:

Trip Planner

Search our weather history database for the weather conditions in past years. The results will help you decide how hot, cold, wet, or windy it might be!

Date:

Astronomy

Jan. 18, 2014 Rise Set
Actual Time 7:48 AM EET 5:33 PM EET
Civil Twilight 7:18 AM EET 6:02 PM EET
Nautical Twilight 6:45 AM EET 6:36 PM EET
Astronomical Twilight 6:13 AM EET 7:08 PM EET
Moon 7:57 PM EET (1/18) 8:38 AM EET (1/18)
Length of Visible Light 10h 44m
Length of Day
9h 45m
Waning Gibbous, 96% of the Moon is Illuminated
Jan 18
Waning Gibbous
Jan 24
Last Quarter
Jan 30
New
Feb 6
First Quarter
Feb 15
Full

Hourly Weather History & Observations

Time (EET) Temp. Windchill Dew Point Humidity Pressure Visibility Wind Dir Wind Speed Gust Speed Precip Events Conditions
12:50 AM 37.4 °F - 37.4 °F 100% 30.12 in 0.3 mi Calm Calm - N/A Fog Fog
1:50 AM 37.4 °F - 37.4 °F 100% 30.12 in 0.3 mi Calm Calm - N/A Fog Fog
2:00 AM 38 °F - 38 °F 99% 30.14 in 0 mi Calm Calm - - Fog Partial Fog
2:50 AM 37.4 °F - 37.4 °F 100% 30.12 in 0.2 mi Calm Calm - N/A Fog Fog
3:50 AM 37.4 °F - 37.4 °F 100% 30.12 in 0.2 mi Calm Calm - N/A Fog Fog
4:50 AM 37.4 °F - 37.4 °F 100% 30.09 in 0.4 mi Calm Calm - N/A Fog Fog
5:00 AM 37 °F - 37 °F 98% 30.13 in 0 mi Calm Calm - - Fog Partial Fog
5:50 AM 35.6 °F - 35.6 °F 100% 30.09 in 0.4 mi Calm Calm - N/A Fog Fog
6:50 AM 37.4 °F - 37.4 °F 100% 30.12 in 0.4 mi Calm Calm - N/A Fog Fog
7:50 AM 37.4 °F - 37.4 °F 100% 30.12 in 0.2 mi Calm Calm - N/A Fog Fog
8:00 AM 37 °F - 37 °F 100% 30.14 in 0 mi Calm Calm - - Fog Partial Fog
8:50 AM 37.4 °F - 37.4 °F 100% 30.12 in 0.4 mi Calm Calm - N/A Fog Fog
9:50 AM 41.0 °F - 41.0 °F 100% 30.15 in 0.2 mi Calm Calm - N/A Fog Fog
10:50 AM 42.8 °F - 42.8 °F 100% 30.15 in 0.3 mi Calm Calm - N/A Fog Fog
11:00 AM 43 °F - 43 °F 99% 30.17 in 0 mi Calm Calm - - Fog Partial Fog
11:50 AM 46.4 °F - 46.4 °F 100% 30.12 in 1.2 mi Calm Calm - N/A   Mostly Cloudy
12:50 PM 48.2 °F - 48.2 °F 100% 30.09 in 1.9 mi Calm Calm - N/A   Mostly Cloudy
1:50 PM 50.0 °F - 48.2 °F 94% 30.06 in 2.5 mi Calm Calm - N/A   Mostly Cloudy
2:00 PM 49 °F - 48 °F 94% 30.09 in 2 mi Calm Calm - -   Mist
2:50 PM 50.0 °F - 46.4 °F 87% 30.06 in 3.7 mi Calm Calm - N/A   Mostly Cloudy
3:50 PM 50.0 °F - 46.4 °F 87% 30.09 in 5.0 mi Calm Calm - N/A   Mostly Cloudy
4:50 PM 48.2 °F - 46.4 °F 93% 30.09 in 5.0 mi Calm Calm - N/A   Mostly Cloudy
5:00 PM 49 °F - 46 °F 87% 30.11 in 5 mi Calm Calm - -   Mist
5:50 PM 46.4 °F - 46.4 °F 100% 30.06 in 3.7 mi Calm Calm - N/A   Mostly Cloudy
6:50 PM 46.4 °F - 46.4 °F 100% 30.09 in 3.7 mi Calm Calm - N/A   Mostly Cloudy
7:50 PM 46.4 °F - 46.4 °F 100% 30.09 in 3.7 mi Calm Calm - N/A   Mostly Cloudy
8:00 PM 46 °F - 46 °F 97% 30.13 in 4 mi Calm Calm - -   Mist
8:50 PM 46.4 °F - 46.4 °F 100% 30.09 in 3.7 mi Calm Calm - N/A   Mostly Cloudy
9:50 PM 46.4 °F - 46.4 °F 100% 30.12 in 3.7 mi Calm Calm - N/A   Mostly Cloudy
10:50 PM 44.6 °F - 44.6 °F 100% 30.12 in 3.7 mi Calm Calm - N/A   Mostly Cloudy
11:00 PM 45 °F - 45 °F 100% 30.13 in 4 mi Calm Calm - -   Mist
11:50 PM 46.4 °F 45.2 °F 46.4 °F 100% 30.12 in 3.7 mi WNW 3.5 mph - N/A   Mostly Cloudy